This is the latest recevied weather packets stored in our database for station/object SA4AGM-10. If no packets are shown the sender has not sent any weather packets the latest 10 day(s).
| Time | Temp. | Humidity | Pressure | Rain* | Wind** | Luminosity | Snow |
|---|---|---|---|---|---|---|---|
| 1777428494 | -1.11° C | 100% | 1028.9 hPa | - | - | - | - |
| 1777427594 | -1.11° C | 100% | 1029 hPa | - | - | - | - |
| 1777426694 | -1.11° C | 100% | 1029 hPa | - | - | - | - |
| 1777425794 | -1.11° C | 99% | 1028.9 hPa | - | - | - | - |
| 1777424894 | -0.56° C | 100% | 1028.8 hPa | - | - | - | - |
| 1777423994 | -0.56° C | 100% | 1028.7 hPa | - | - | - | - |
| 1777423094 | -0.56° C | 99% | 1028.7 hPa | - | - | - | - |
| 1777422194 | -0.56° C | 100% | 1028.6 hPa | - | - | - | - |
| 1777421294 | 0° C | 100% | 1028.7 hPa | - | - | - | - |
| 1777420394 | 0° C | 100% | 1028.8 hPa | - | - | - | - |
| 1777419494 | 0° C | 99% | 1028.7 hPa | - | - | - | - |
| 1777418593 | 0° C | 100% | 1028.8 hPa | - | - | - | - |
| 1777417693 | 0° C | 100% | 1028.9 hPa | - | - | - | - |
| 1777416793 | 0.56° C | 95% | 1028.8 hPa | - | - | - | - |
| 1777415893 | 1.11° C | 97% | 1028.8 hPa | - | - | - | - |
| 1777414993 | 1.11° C | 94% | 1028.7 hPa | - | - | - | - |
| 1777414093 | 1.11° C | 92% | 1028.6 hPa | - | - | - | - |
| 1777413193 | 1.67° C | 89% | 1028.3 hPa | - | - | - | - |
| 1777412293 | 1.67° C | 92% | 1028.3 hPa | - | - | - | - |
| 1777411393 | 1.67° C | 87% | 1028.2 hPa | - | - | - | - |
| 1777410492 | 2.22° C | 83% | 1028.2 hPa | - | - | - | - |
| 1777409592 | 2.78° C | 77% | 1028.2 hPa | - | - | - | - |
| 1777408692 | 2.78° C | 76% | 1028 hPa | - | - | - | - |
| 1777407792 | 3.89° C | 76% | 1027.9 hPa | - | - | - | - |
| 1777406892 | 3.89° C | 65% | 1027.8 hPa | - | - | - | - |
* Rain since midnight (hover to see other rain measurements)
** Current wind speed in m/s (hover to see current wind gust speed)